| time (UTC) | temp C | wind direction | speed KPH | gust KPH | rain 1hr cm | rain 24hr cm | rain mn cm | humidity % | barometer mb |
| 20260508104559 | 7 | 229 | 0.0 | 0.0 | 0.00 | 0.00 | 0.00 | 89 | 1010.8 |
| 20260508103059 | 7 | 229 | 0.0 | 0.0 | 0.00 | 0.00 | 0.00 | 88 | 1010.9 |
| 20260508101556 | 7 | 228 | 0.0 | 0.0 | 0.00 | 0.00 | 0.00 | 88 | 1011.2 |
| 20260508100123 | 7 | 229 | 0.0 | 0.0 | 0.00 | 0.00 | 0.00 | 88 | 1011.3 |
| 20260508094552 | 7 | 228 | 0.0 | 1.6 | 0.00 | 0.00 | 0.00 | 87 | 1011.3 |
| 20260508093051 | 7 | 229 | 0.0 | 0.0 | 0.00 | 0.00 | 0.00 | 87 | 1011.3 |
| 20260508091606 | 7 | 229 | 0.0 | 0.0 | 0.00 | 0.00 | 0.00 | 85 | 1011.4 |
| 20260508090050 | 7 | 229 | 0.0 | 0.0 | 0.00 | 0.00 | 0.00 | 84 | 1011.6 |
| 20260508084545 | 7 | 229 | 0.0 | 0.0 | 0.00 | 0.00 | 0.00 | 84 | 1011.5 |
| 20260508083043 | 8 | 229 | 0.0 | 3.2 | 0.00 | 0.00 | 0.00 | 83 | 1011.7 |
| 20260508081601 | 8 | 229 | 0.0 | 0.0 | 0.00 | 0.00 | 0.00 | 82 | 1011.6 |
| 20260508080041 | 8 | 229 | 0.0 | 0.0 | 0.00 | 0.00 | 0.00 | 81 | 1011.7 |
| 20260508074541 | 8 | 229 | 0.0 | 0.0 | 0.00 | 0.00 | 0.00 | 81 | 1011.8 |
| 20260508073043 | 8 | 229 | 0.0 | 0.0 | 0.00 | 0.00 | 0.00 | 79 | 1011.9 |
| 20260508071538 | 9 | 229 | 0.0 | 0.0 | 0.00 | 0.00 | 0.00 | 77 | 1012.0 |
| 20260508070031 | 9 | 229 | 0.0 | 0.0 | 0.00 | 0.00 | 0.00 | 77 | 1012.1 |
| 20260508064532 | 10 | 229 | 0.0 | 0.0 | 0.00 | 0.00 | 0.00 | 76 | 1012.1 |
| 20260508063027 | 10 | 229 | 0.0 | 1.6 | 0.00 | 0.00 | 0.00 | 74 | 1012.1 |
| 20260508061525 | 10 | 229 | 0.0 | 4.8 | 0.00 | 0.00 | 0.00 | 74 | 1012.2 |
| 20260508060028 | 10 | 242 | 0.0 | 3.2 | 0.00 | 0.00 | 0.00 | 74 | 1012.2 |
| 20260508054602 | 10 | 246 | 0.0 | 3.2 | 0.00 | 0.00 | 0.00 | 75 | 1012.2 |
| 20260508053028 | 10 | 245 | 0.0 | 4.8 | 0.00 | 0.00 | 0.00 | 75 | 1012.1 |
| 20260508051521 | 10 | 232 | 0.0 | 6.4 | 0.00 | 0.00 | 0.00 | 75 | 1012.0 |
| 20260508050019 | 10 | 267 | 0.0 | 4.8 | 0.00 | 0.00 | 0.00 | 75 | 1012.0 |
| 20260508044518 | 10 | 277 | 0.0 | 3.2 | 0.00 | 0.00 | 0.00 | 75 | 1011.9 |
| 20260508043019 | 10 | 219 | 0.0 | 6.4 | 0.00 | 0.00 | 0.00 | 75 | 1011.9 |
| 20260508041517 | 11 | 294 | 0.0 | 1.6 | 0.00 | 0.00 | 0.00 | 73 | 1011.8 |
| 20260508040017 | 11 | 355 | 0.0 | 3.2 | 0.00 | 0.00 | 0.00 | 72 | 1011.6 |
| 20260508034519 | 11 | 360 | 4.8 | 8.0 | 0.00 | 0.00 | 0.00 | 71 | 1011.6 |
| 20260508033027 | 12 | 252 | 3.2 | 9.7 | 0.00 | 0.00 | 0.00 | 69 | 1011.3 |
| 20260508031515 | 12 | 216 | 3.2 | 11.3 | 0.00 | 0.00 | 0.00 | 68 | 1011.3 |
| 20260508030015 | 12 | 152 | 1.6 | 11.3 | 0.00 | 0.00 | 0.00 | 67 | 1011.2 |
| 20260508024514 | 12 | 203 | 4.8 | 9.7 | 0.00 | 0.00 | 0.00 | 65 | 1011.1 |
| 20260508023014 | 12 | 208 | 1.6 | 8.0 | 0.00 | 0.00 | 0.00 | 60 | 1011.0 |
| 20260508021514 | 12 | 201 | 1.6 | 6.4 | 0.00 | 0.00 | 0.00 | 58 | 1011.0 |
| 20260508020015 | 11 | 191 | 3.2 | 6.4 | 0.00 | 0.00 | 0.00 | 62 | 1010.8 |
| 20260508014513 | 10 | 190 | 0.0 | 3.2 | 0.00 | 0.00 | 0.00 | 66 | 1010.6 |
| 20260508013014 | 10 | 190 | 0.0 | 0.0 | 0.00 | 0.00 | 0.00 | 70 | 1010.4 |
| 20260508011512 | 11 | 190 | 0.0 | 6.4 | 0.00 | 0.00 | 0.00 | 66 | 1010.4 |
| 20260508010024 | 12 | 12 | 0.0 | 0.0 | 0.00 | 0.00 | 0.00 | 66 | 1010.3 |
| 20260508004519 | 12 | 12 | 0.0 | 0.0 | 0.00 | 0.00 | 0.00 | 63 | 1010.2 |
| 20260508003011 | 13 | 12 | 0.0 | 0.0 | 0.00 | 0.00 | 0.00 | 61 | 1010.2 |
| 20260508001510 | 13 | 12 | 0.0 | 0.0 | 0.00 | 0.00 | 0.00 | 57 | 1010.2 |
| 20260508000009 | 14 | 12 | 0.0 | 0.0 | 0.00 | 0.00 | 0.00 | 57 | 1010.1 |
| 20260507234509 | 15 | 12 | 0.0 | 8.0 | 0.00 | 0.00 | 0.00 | 49 | 1010.2 |
| 20260507233008 | 15 | 355 | 1.6 | 9.7 | 0.00 | 0.00 | 0.00 | 51 | 1010.2 |
| 20260507231508 | 14 | 348 | 6.4 | 16.1 | 0.00 | 0.00 | 0.00 | 50 | 1010.4 |
| 20260507230008 | 15 | 348 | 6.4 | 17.7 | 0.00 | 0.00 | 0.00 | 51 | 1010.6 |
| 20260507224512 | 15 | 355 | 8.0 | 19.3 | 0.00 | 0.00 | 0.00 | 49 | 1010.5 |
| 20260507223006 | 16 | 290 | 6.4 | 14.5 | 0.00 | 0.00 | 0.00 | 40 | 1010.3 |
| 20260507221508 | 17 | 225 | 6.4 | 14.5 | 0.00 | 0.00 | 0.00 | 40 | 1010.2 |
| 20260507220005 | 17 | 182 | 4.8 | 20.9 | 0.00 | 0.00 | 0.00 | 45 | 1010.2 |
| 20260507214501 | 16 | 63 | 4.8 | 22.5 | 0.00 | 0.00 | 0.00 | 47 | 1010.2 |
| 20260507213059 | 16 | 179 | 6.4 | 33.8 | 0.00 | 0.00 | 0.00 | 48 | 1010.4 |
| 20260507211557 | 16 | 203 | 6.4 | 25.7 | 0.00 | 0.00 | 0.00 | 51 | 1010.5 |
| 20260507204553 | 15 | 94 | 4.8 | 14.5 | 0.00 | 0.00 | 0.00 | 51 | 1010.8 |
| 20260507203057 | 15 | 202 | 4.8 | 16.1 | 0.00 | 0.00 | 0.00 | 53 | 1011.1 |
| 20260507201548 | 15 | 271 | 8.0 | 19.3 | 0.00 | 0.00 | 0.00 | 56 | 1011.3 |
| 20260507200045 | 14 | 270 | 6.4 | 24.1 | 0.00 | 0.00 | 0.00 | 56 | 1011.5 |
| 20260507194541 | 13 | 244 | 8.0 | 20.9 | 0.00 | 0.00 | 0.00 | 58 | 1012.1 |
| 20260507193040 | 13 | 225 | 11.3 | 25.7 | 0.00 | 0.00 | 0.00 | 58 | 1012.4 |
| 20260507191538 | 13 | 224 | 6.4 | 29.0 | 0.00 | 0.00 | 0.00 | 58 | 1012.7 |
| 20260507190035 | 13 | 333 | 6.4 | 32.2 | 0.00 | 0.00 | 0.00 | 59 | 1012.9 |
| 20260507184534 | 13 | 51 | 9.7 | 35.4 | 0.00 | 0.00 | 0.00 | 57 | 1013.1 |
| 20260507183043 | 13 | 154 | 9.7 | 30.6 | 0.00 | 0.00 | 0.00 | 57 | 1013.3 |
| 20260507181534 | 13 | 194 | 12.9 | 27.4 | 0.00 | 0.00 | 0.00 | 54 | 1013.3 |
| 20260507180033 | 13 | 161 | 11.3 | 24.1 | 0.00 | 0.00 | 0.00 | 49 | 1013.4 |
| 20260507174528 | 14 | 250 | 8.0 | 19.3 | 0.00 | 0.00 | 0.00 | 46 | 1013.4 |
| 20260507173025 | 13 | 190 | 8.0 | 30.6 | 0.00 | 0.00 | 0.00 | 46 | 1013.6 |
| 20260507171524 | 13 | 217 | 8.0 | 27.4 | 0.00 | 0.00 | 0.00 | 44 | 1013.8 |
| 20260507170023 | 13 | 173 | 9.7 | 19.3 | 0.00 | 0.00 | 0.00 | 41 | 1014.1 |
| 20260507164519 | 13 | 215 | 6.4 | 14.5 | 0.00 | 0.00 | 0.00 | 42 | 1014.1 |
| 20260507163017 | 13 | 196 | 6.4 | 16.1 | 0.00 | 0.00 | 0.00 | 43 | 1014.2 |
| 20260507161513 | 13 | 162 | 3.2 | 17.7 | 0.00 | 0.00 | 0.00 | 44 | 1014.6 |
| 20260507160032 | 13 | 191 | 4.8 | 17.7 | 0.00 | 0.00 | 0.00 | 44 | 1014.7 |
| 20260507154513 | 12 | 198 | 6.4 | 11.3 | 0.00 | 0.00 | 0.00 | 46 | 1015.0 |
| 20260507153006 | 12 | 217 | 3.2 | 12.9 | 0.00 | 0.00 | 0.00 | 49 | 1015.2 |
| 20260507151504 | 11 | 187 | 4.8 | 14.5 | 0.00 | 0.00 | 0.00 | 48 | 1015.3 |
| 20260507150003 | 11 | 182 | 3.2 | 14.5 | 0.00 | 0.00 | 0.00 | 49 | 1015.4 |
| 20260507144557 | 11 | 192 | 3.2 | 11.3 | 0.00 | 0.00 | 0.00 | 50 | 1015.6 |
| 20260507143055 | 10 | 228 | 0.0 | 8.0 | 0.00 | 0.00 | 0.00 | 54 | 1016.0 |
| 20260507141551 | 10 | 209 | 1.6 | 6.4 | 0.00 | 0.00 | 0.00 | 54 | 1016.2 |
| 20260507140100 | 8 | 184 | 3.2 | 11.3 | 0.00 | 0.00 | 0.00 | 57 | 1016.4 |
| 20260507134544 | 8 | 212 | 3.2 | 8.0 | 0.00 | 0.00 | 0.00 | 58 | 1016.2 |
| 20260507133042 | 7 | 192 | 3.2 | 9.7 | 0.00 | 0.00 | 0.00 | 58 | 1016.5 |
| 20260507131538 | 6 | 320 | 0.0 | 3.2 | 0.00 | 0.00 | 0.00 | 70 | 1016.6 |
| 20260507130038 | 4 | 360 | 0.0 | 1.6 | 0.00 | 0.00 | 0.00 | 81 | 1016.7 |
| 20260507124545 | 3 | 5 | 0.0 | 0.0 | 0.00 | 0.00 | 0.00 | 87 | 1016.7 |
| 20260507123029 | 2 | 5 | 0.0 | 0.0 | 0.00 | 0.00 | 0.00 | 89 | 1016.7 |
| 20260507121526 | 1 | 5 | 0.0 | 0.0 | 0.00 | 0.00 | 0.00 | 88 | 1016.3 |
| 20260507120026 | 0 | 5 | 0.0 | 0.0 | 0.00 | 0.00 | 0.00 | 87 | 1016.2 |
| 20260507114528 | 0 | 5 | 0.0 | 0.0 | 0.00 | 0.00 | 0.00 | 86 | 1016.2 |
| 20260507113024 | 0 | 5 | 0.0 | 0.0 | 0.00 | 0.00 | 0.00 | 85 | 1016.1 |
| 20260507111523 | 0 | 5 | 0.0 | 0.0 | 0.00 | 0.00 | 0.00 | 84 | 1016.1 |
| 20260507110029 | 0 | 5 | 0.0 | 0.0 | 0.00 | 0.00 | 0.00 | 83 | 1016.1 |